Time,TemperatureF,DewpointF,PressureIn,WindDirection,WindDirectionDegrees,WindSpeedMPH,WindSpeedGustMPH,Humidity,HourlyPrecipIn,Conditions,Clouds,dailyrainin,SoftwareType,DateUTC
2013-04-17 00:02:00,49.0,42.0,-100.00,ENE,75,11.0,15.0,78,-99.99,,,-99.99,,2013-04-17 05:02:00,
2013-04-17 00:12:00,49.0,42.0,-100.00,ENE,70,9.0,14.0,78,-99.99,,,-99.99,,2013-04-17 05:12:00,
2013-04-17 00:22:00,49.0,42.0,-100.00,NE,55,7.0,12.0,78,-99.99,,,-99.99,,2013-04-17 05:22:00,
2013-04-17 00:32:00,49.0,42.0,-100.00,NE,55,7.0,12.0,78,-99.99,,,-99.99,,2013-04-17 05:32:00,
2013-04-17 00:42:00,49.0,42.0,-100.00,East,80,12.0,14.0,78,-99.99,,,-99.99,,2013-04-17 05:42:00,
2013-04-17 00:52:00,49.0,42.0,-100.00,ENE,75,13.0,15.0,78,-99.99,,,-99.99,,2013-04-17 05:52:00,
2013-04-17 01:02:00,49.0,42.0,-100.00,ENE,75,13.0,15.0,78,-99.99,,,-99.99,,2013-04-17 06:02:00,
2013-04-17 01:12:00,49.0,43.0,-100.00,East,80,9.0,19.0,79,-99.99,,,-99.99,,2013-04-17 06:12:00,
2013-04-17 01:22:00,49.0,43.0,-100.00,East,90,16.0,21.0,79,-99.99,,,-99.99,,2013-04-17 06:22:00,
2013-04-17 01:32:00,49.0,43.0,-100.00,East,90,16.0,21.0,79,-99.99,,,-99.99,,2013-04-17 06:32:00,
2013-04-17 01:42:00,49.0,44.0,-100.00,East,90,21.0,26.0,81,-99.99,,,-99.99,,2013-04-17 06:42:00,
2013-04-17 01:52:00,48.0,43.0,-100.00,East,95,21.0,29.0,81,-99.99,,,-99.99,,2013-04-17 06:52:00,
2013-04-17 02:02:00,48.0,43.0,-100.00,East,95,21.0,29.0,81,-99.99,,,-99.99,,2013-04-17 07:02:00,
2013-04-17 02:12:00,48.0,42.0,-100.00,East,100,16.0,24.0,80,-99.99,,,-99.99,,2013-04-17 07:12:00,
2013-04-17 02:22:00,47.0,40.0,-100.00,East,100,26.0,32.0,78,-99.99,,,-99.99,,2013-04-17 07:22:00,
2013-04-17 02:32:00,47.0,40.0,-100.00,East,100,26.0,32.0,78,-99.99,,,-99.99,,2013-04-17 07:32:00,
2013-04-17 02:42:00,46.0,40.0,-100.00,East,90,21.0,32.0,78,-99.99,,,-99.99,,2013-04-17 07:42:00,
2013-04-17 02:52:00,46.0,40.0,-100.00,East,90,19.0,25.0,78,-99.99,,,-99.99,,2013-04-17 07:52:00,
2013-04-17 03:02:00,46.0,40.0,-100.00,East,90,19.0,25.0,78,-99.99,,,-99.99,,2013-04-17 08:02:00,
2013-04-17 03:12:00,46.0,40.0,-100.00,East,100,18.0,24.0,80,-99.99,,,-99.99,,2013-04-17 08:12:00,
2013-04-17 03:22:00,45.0,40.0,-100.00,East,90,20.0,25.0,81,-99.99,,,-99.99,,2013-04-17 08:22:00,
2013-04-17 03:32:00,45.0,40.0,-100.00,East,90,20.0,25.0,81,-99.99,,,-99.99,,2013-04-17 08:32:00,
2013-04-17 03:42:00,45.0,39.0,-100.00,East,90,24.0,28.0,79,-99.99,,,-99.99,,2013-04-17 08:42:00,
2013-04-17 03:52:00,45.0,39.0,-100.00,East,85,23.0,29.0,78,-99.99,,,-99.99,,2013-04-17 08:52:00,
2013-04-17 04:02:00,45.0,39.0,-100.00,East,85,23.0,29.0,78,-99.99,,,-99.99,,2013-04-17 09:02:00,
2013-04-17 04:12:00,45.0,38.0,-100.00,East,90,20.0,31.0,79,-99.99,,,-99.99,,2013-04-17 09:12:00,
2013-04-17 04:22:00,44.0,37.0,-100.00,East,90,23.0,29.0,77,-99.99,,,-99.99,,2013-04-17 09:22:00,
2013-04-17 04:33:00,44.0,37.0,-100.00,East,90,23.0,29.0,77,-99.99,,,-99.99,,2013-04-17 09:33:00,
2013-04-17 04:42:00,44.0,37.0,-100.00,East,95,20.0,31.0,76,-99.99,,,-99.99,,2013-04-17 09:42:00,
2013-04-17 04:52:00,44.0,37.0,-100.00,East,90,20.0,24.0,76,-99.99,,,-99.99,,2013-04-17 09:52:00,
2013-04-17 05:02:00,44.0,37.0,-100.00,East,90,20.0,24.0,76,-99.99,,,-99.99,,2013-04-17 10:02:00,
2013-04-17 05:12:00,44.0,37.0,-100.00,East,90,17.0,30.0,76,-99.99,,,-99.99,,2013-04-17 10:12:00,
2013-04-17 05:23:00,44.0,37.0,-100.00,East,95,22.0,28.0,78,-99.99,,,-99.99,,2013-04-17 10:23:00,
2013-04-17 05:32:00,44.0,37.0,-100.00,East,95,22.0,28.0,78,-99.99,,,-99.99,,2013-04-17 10:32:00,
2013-04-17 05:42:00,44.0,37.0,-100.00,East,90,24.0,30.0,79,-99.99,,,-99.99,,2013-04-17 10:42:00,
2013-04-17 05:53:00,44.0,38.0,-100.00,East,80,17.0,24.0,79,-99.99,,,-99.99,,2013-04-17 10:53:00,
2013-04-17 06:02:00,44.0,38.0,-100.00,East,80,17.0,24.0,79,-99.99,,,-99.99,,2013-04-17 11:02:00,
2013-04-17 06:12:00,43.0,38.0,-100.00,East,90,27.0,32.0,80,-99.99,,,-99.99,,2013-04-17 11:12:00,
2013-04-17 06:22:00,44.0,38.0,-100.00,East,85,16.0,22.0,80,-99.99,,,-99.99,,2013-04-17 11:22:00,
2013-04-17 06:32:00,44.0,38.0,-100.00,East,85,16.0,22.0,80,-99.99,,,-99.99,,2013-04-17 11:32:00,
2013-04-17 06:42:00,44.0,37.0,-100.00,ENE,75,20.0,25.0,78,-99.99,,,-99.99,,2013-04-17 11:42:00,
2013-04-17 06:52:00,44.0,37.0,-100.00,East,90,19.0,27.0,77,-99.99,,,-99.99,,2013-04-17 11:52:00,
2013-04-17 07:02:00,44.0,37.0,-100.00,East,90,19.0,27.0,77,-99.99,,,-99.99,,2013-04-17 12:02:00,
2013-04-17 07:12:00,44.0,37.0,-100.00,East,90,17.0,20.0,76,-99.99,,,-99.99,,2013-04-17 12:12:00,
2013-04-17 07:22:00,44.0,37.0,-100.00,East,85,19.0,26.0,77,-99.99,,,-99.99,,2013-04-17 12:22:00,
2013-04-17 07:32:00,44.0,37.0,-100.00,East,85,19.0,26.0,77,-99.99,,,-99.99,,2013-04-17 12:32:00,
2013-04-17 07:42:00,44.0,37.0,-100.00,East,85,21.0,24.0,78,-99.99,,,-99.99,,2013-04-17 12:42:00,
2013-04-17 07:52:00,44.0,37.0,-100.00,East,80,19.0,27.0,78,-99.99,,,-99.99,,2013-04-17 12:52:00,
2013-04-17 08:01:00,43.0,39.0,-100.00,East,90,25.0,32.0,85,-99.99,,,-99.99,,2013-04-17 13:01:00,
2013-04-17 08:02:00,44.0,37.0,-100.00,East,80,19.0,27.0,78,-99.99,,,-99.99,,2013-04-17 13:02:00,
2013-04-17 08:12:00,44.0,37.0,-100.00,ENE,70,15.0,21.0,78,-99.99,,,-99.99,,2013-04-17 13:12:00,
2013-04-17 08:22:00,44.0,38.0,-100.00,East,90,25.0,31.0,81,-99.99,,,-99.99,,2013-04-17 13:22:00,
2013-04-17 08:32:00,44.0,38.0,-100.00,East,90,25.0,31.0,81,-99.99,,,-99.99,,2013-04-17 13:32:00,
2013-04-17 08:42:00,43.0,39.0,-100.00,East,90,25.0,32.0,85,-99.99,,,-99.99,,2013-04-17 13:42:00,
2013-04-17 08:52:00,43.0,39.0,-100.00,East,90,25.0,32.0,85,-99.99,,,-99.99,,2013-04-17 13:52:00,
2013-04-17 09:12:00,44.0,40.0,-100.00,East,95,27.0,36.0,87,-99.99,,,-99.99,,2013-04-17 14:12:00,
2013-04-17 09:22:00,43.0,40.0,-100.00,East,100,26.0,32.0,88,-99.99,,,-99.99,,2013-04-17 14:22:00,
2013-04-17 09:32:00,43.0,40.0,-100.00,East,100,26.0,32.0,88,-99.99,,,-99.99,,2013-04-17 14:32:00,
2013-04-17 09:42:00,44.0,41.0,-100.00,ESE,105,24.0,30.0,89,-99.99,,,-99.99,,2013-04-17 14:42:00,
2013-04-17 09:52:00,44.0,41.0,-100.00,ESE,110,24.0,31.0,89,-99.99,,,-99.99,,2013-04-17 14:52:00,
2013-04-17 10:02:00,44.0,41.0,-100.00,ESE,110,24.0,31.0,89,-99.99,,,-99.99,,2013-04-17 15:02:00,
2013-04-17 10:12:00,45.0,42.0,-100.00,East,100,22.0,32.0,89,-99.99,,,-99.99,,2013-04-17 15:12:00,
2013-04-17 10:22:00,44.0,42.0,-100.00,ESE,110,26.0,30.0,92,-99.99,,,-99.99,,2013-04-17 15:22:00,
2013-04-17 10:33:00,44.0,42.0,-100.00,ESE,110,26.0,30.0,92,-99.99,,,-99.99,,2013-04-17 15:33:00,
2013-04-17 10:42:00,44.0,42.0,-100.00,ESE,110,24.0,29.0,94,-99.99,,,-99.99,,2013-04-17 15:42:00,
2013-04-17 10:53:00,44.0,43.0,-100.00,East,100,23.0,29.0,95,-99.99,,,-99.99,,2013-04-17 15:53:00,
2013-04-17 11:03:00,44.0,43.0,-100.00,East,100,23.0,29.0,95,-99.99,,,-99.99,,2013-04-17 16:03:00,
2013-04-17 11:12:00,44.0,43.0,-100.00,East,100,23.0,28.0,96,-99.99,,,-99.99,,2013-04-17 16:12:00,
2013-04-17 11:23:00,44.0,43.0,-100.00,East,100,20.0,25.0,97,-99.99,,,-99.99,,2013-04-17 16:23:00,
2013-04-17 11:32:00,44.0,43.0,-100.00,East,100,20.0,25.0,97,-99.99,,,-99.99,,2013-04-17 16:32:00,
2013-04-17 11:42:00,44.0,43.0,-100.00,ESE,105,21.0,26.0,97,-99.99,,,-99.99,,2013-04-17 16:42:00,
2013-04-17 11:52:00,44.0,44.0,-100.00,ESE,110,20.0,24.0,97,-99.99,,,-99.99,,2013-04-17 16:52:00,
2013-04-17 12:02:00,44.0,44.0,-100.00,ESE,110,20.0,24.0,97,-99.99,,,-99.99,,2013-04-17 17:02:00,
2013-04-17 12:12:00,45.0,44.0,-100.00,ESE,115,21.0,26.0,97,-99.99,,,-99.99,,2013-04-17 17:12:00,
2013-04-17 12:22:00,45.0,44.0,-100.00,ESE,115,24.0,31.0,97,-99.99,,,-99.99,,2013-04-17 17:22:00,
2013-04-17 12:33:00,45.0,44.0,-100.00,ESE,115,24.0,31.0,97,-99.99,,,-99.99,,2013-04-17 17:33:00,
2013-04-17 12:42:00,45.0,45.0,-100.00,SE,125,20.0,29.0,98,-99.99,,,-99.99,,2013-04-17 17:42:00,
2013-04-17 12:52:00,46.0,45.0,-100.00,ESE,115,24.0,28.0,98,-99.99,,,-99.99,,2013-04-17 17:52:00,
2013-04-17 13:02:00,46.0,45.0,-100.00,ESE,115,24.0,28.0,98,-99.99,,,-99.99,,2013-04-17 18:02:00,
2013-04-17 13:12:00,46.0,45.0,-100.00,ESE,115,19.0,26.0,98,-99.99,,,-99.99,,2013-04-17 18:12:00,
2013-04-17 13:22:00,45.0,45.0,-100.00,NW,315,34.0,54.0,98,-99.99,,,-99.99,,2013-04-17 18:22:00,
2013-04-17 13:32:00,45.0,45.0,-100.00,NW,315,34.0,54.0,98,-99.99,,,-99.99,,2013-04-17 18:32:00,
2013-04-17 13:42:00,45.0,44.0,-100.00,North,0,21.0,29.0,98,-99.99,,,-99.99,,2013-04-17 18:42:00,
2013-04-17 13:52:00,43.0,42.0,-100.00,North,5,19.0,32.0,98,-99.99,,,-99.99,,2013-04-17 18:52:00,
2013-04-17 14:02:00,43.0,42.0,-100.00,North,5,19.0,32.0,98,-99.99,,,-99.99,,2013-04-17 19:02:00,
2013-04-17 14:12:00,42.0,42.0,-100.00,NNE,20,28.0,35.0,99,-99.99,,,-99.99,,2013-04-17 19:12:00,
2013-04-17 14:22:00,43.0,42.0,-100.00,NNE,20,24.0,32.0,99,-99.99,,,-99.99,,2013-04-17 19:22:00,
2013-04-17 14:32:00,43.0,42.0,-100.00,NNE,20,24.0,32.0,99,-99.99,,,-99.99,,2013-04-17 19:32:00,
2013-04-17 14:42:00,43.0,43.0,-100.00,NNE,20,23.0,31.0,99,-99.99,,,-99.99,,2013-04-17 19:42:00,
2013-04-17 14:52:00,43.0,42.0,-100.00,ENE,75,27.0,35.0,99,-99.99,,,-99.99,,2013-04-17 19:52:00,
2013-04-17 15:02:00,43.0,42.0,-100.00,ENE,75,27.0,35.0,99,-99.99,,,-99.99,,2013-04-17 20:02:00,
2013-04-17 15:12:00,43.0,42.0,-100.00,East,80,29.0,36.0,99,-99.99,,,-99.99,,2013-04-17 20:12:00,
2013-04-17 15:22:00,43.0,43.0,-100.00,East,80,19.0,31.0,99,-99.99,,,-99.99,,2013-04-17 20:22:00,
2013-04-17 15:32:00,43.0,43.0,-100.00,East,80,19.0,31.0,99,-99.99,,,-99.99,,2013-04-17 20:32:00,
2013-04-17 15:42:00,44.0,43.0,-100.00,NE,50,11.0,14.0,99,-99.99,,,-99.99,,2013-04-17 20:42:00,
2013-04-17 15:52:00,44.0,43.0,-100.00,NE,55,19.0,29.0,99,-99.99,,,-99.99,,2013-04-17 20:52:00,
2013-04-17 16:02:00,44.0,43.0,-100.00,NE,55,19.0,29.0,99,-99.99,,,-99.99,,2013-04-17 21:02:00,
2013-04-17 16:12:00,44.0,43.0,-100.00,East,80,34.0,42.0,99,-99.99,,,-99.99,,2013-04-17 21:12:00,
2013-04-17 16:22:00,44.0,44.0,-100.00,ESE,110,21.0,28.0,99,-99.99,,,-99.99,,2013-04-17 21:22:00,
2013-04-17 16:33:00,44.0,44.0,-100.00,ESE,110,21.0,28.0,99,-99.99,,,-99.99,,2013-04-17 21:33:00,
2013-04-17 16:42:00,44.0,44.0,-100.00,ESE,115,5.0,16.0,99,-99.99,,,-99.99,,2013-04-17 21:42:00,
2013-04-17 16:53:00,44.0,44.0,-100.00,East,90,16.0,20.0,99,-99.99,,,-99.99,,2013-04-17 21:53:00,
2013-04-17 17:02:00,44.0,44.0,-100.00,East,90,16.0,20.0,99,-99.99,,,-99.99,,2013-04-17 22:02:00,
2013-04-17 17:12:00,44.0,44.0,-100.00,East,100,29.0,32.0,99,-99.99,,,-99.99,,2013-04-17 22:12:00,
2013-04-17 17:22:00,45.0,45.0,-100.00,East,95,21.0,29.0,99,-99.99,,,-99.99,,2013-04-17 22:22:00,
2013-04-17 17:33:00,45.0,45.0,-100.00,East,95,21.0,29.0,99,-99.99,,,-99.99,,2013-04-17 22:33:00,
2013-04-17 17:42:00,46.0,46.0,-100.00,East,100,24.0,28.0,99,-99.99,,,-99.99,,2013-04-17 22:42:00,
2013-04-17 17:53:00,46.0,46.0,-100.00,ESE,105,19.0,29.0,99,-99.99,,,-99.99,,2013-04-17 22:53:00,
2013-04-17 18:02:00,46.0,46.0,-100.00,ESE,105,19.0,29.0,99,-99.99,,,-99.99,,2013-04-17 23:02:00,
2013-04-17 18:12:00,46.0,46.0,-100.00,East,100,19.0,24.0,99,-99.99,,,-99.99,,2013-04-17 23:12:00,
2013-04-17 18:22:00,47.0,46.0,-100.00,NW,320,16.0,19.0,99,-99.99,,,-99.99,,2013-04-17 23:22:00,
2013-04-17 18:32:00,47.0,46.0,-100.00,NW,320,16.0,19.0,99,-99.99,,,-99.99,,2013-04-17 23:32:00,
2013-04-17 18:42:00,47.0,46.0,-100.00,North,0,7.0,14.0,99,-99.99,,,-99.99,,2013-04-17 23:42:00,
2013-04-17 18:52:00,47.0,46.0,-100.00,SSE,150,6.0,9.0,99,-99.99,,,-99.99,,2013-04-17 23:52:00,
2013-04-17 19:02:00,47.0,46.0,-100.00,SSE,150,6.0,9.0,99,-99.99,,,-99.99,,2013-04-18 00:02:00,
2013-04-17 19:12:00,47.0,46.0,-100.00,East,80,15.0,18.0,99,-99.99,,,-99.99,,2013-04-18 00:12:00,
2013-04-17 19:22:00,47.0,47.0,-100.00,East,90,13.0,20.0,99,-99.99,,,-99.99,,2013-04-18 00:22:00,
2013-04-17 19:32:00,47.0,47.0,-100.00,East,90,13.0,20.0,99,-99.99,,,-99.99,,2013-04-18 00:32:00,
2013-04-17 19:42:00,47.0,47.0,-100.00,East,90,13.0,20.0,99,-99.99,,,-99.99,,2013-04-18 00:42:00,
2013-04-17 19:52:00,47.0,47.0,-100.00,ESE,105,9.0,17.0,99,-99.99,,,-99.99,,2013-04-18 00:52:00,
2013-04-17 20:02:00,47.0,47.0,-100.00,ESE,105,9.0,17.0,99,-99.99,,,-99.99,,2013-04-18 01:02:00,
2013-04-17 20:12:00,48.0,48.0,-100.00,ESE,120,14.0,15.0,99,-99.99,,,-99.99,,2013-04-18 01:12:00,
2013-04-17 20:22:00,48.0,48.0,-100.00,SE,135,10.0,16.0,99,-99.99,,,-99.99,,2013-04-18 01:22:00,
2013-04-17 20:32:00,48.0,48.0,-100.00,SE,135,10.0,16.0,99,-99.99,,,-99.99,,2013-04-18 01:32:00,
2013-04-17 20:42:00,48.0,48.0,-100.00,ESE,110,12.0,14.0,99,-99.99,,,-99.99,,2013-04-18 01:42:00,
2013-04-17 20:52:00,49.0,49.0,-100.00,ESE,115,20.0,22.0,99,-99.99,,,-99.99,,2013-04-18 01:52:00,
2013-04-17 21:02:00,49.0,49.0,-100.00,ESE,115,20.0,22.0,99,-99.99,,,-99.99,,2013-04-18 02:02:00,
2013-04-17 21:12:00,49.0,49.0,-100.00,SE,125,16.0,21.0,99,-99.99,,,-99.99,,2013-04-18 02:12:00,
2013-04-17 21:22:00,50.0,50.0,-100.00,ESE,105,17.0,21.0,99,-99.99,,,-99.99,,2013-04-18 02:22:00,
2013-04-17 21:32:00,50.0,50.0,-100.00,ESE,105,17.0,21.0,99,-99.99,,,-99.99,,2013-04-18 02:32:00,
2013-04-17 21:42:00,50.0,50.0,-100.00,ESE,105,17.0,21.0,99,-99.99,,,-99.99,,2013-04-18 02:42:00,
2013-04-17 22:02:00,52.0,51.0,-100.00,ESE,115,15.0,21.0,99,-99.99,,,-99.99,,2013-04-18 03:02:00,
2013-04-17 22:12:00,53.0,52.0,-100.00,SE,125,21.0,26.0,99,-99.99,,,-99.99,,2013-04-18 03:12:00,
2013-04-17 22:22:00,52.0,52.0,-100.00,ESE,115,21.0,30.0,99,-99.99,,,-99.99,,2013-04-18 03:22:00,
2013-04-17 22:33:00,52.0,52.0,-100.00,ESE,115,21.0,30.0,99,-99.99,,,-99.99,,2013-04-18 03:33:00,
2013-04-17 22:43:00,53.0,53.0,-100.00,ESE,105,24.0,29.0,99,-99.99,,,-99.99,,2013-04-18 03:43:00,
2013-04-17 22:53:00,55.0,55.0,-100.00,ESE,110,32.0,36.0,99,-99.99,,,-99.99,,2013-04-18 03:53:00,
2013-04-17 23:03:00,55.0,55.0,-100.00,ESE,110,32.0,36.0,99,-99.99,,,-99.99,,2013-04-18 04:03:00,
2013-04-17 23:13:00,56.0,55.0,-100.00,ESE,115,30.0,42.0,99,-99.99,,,-99.99,,2013-04-18 04:13:00,
2013-04-17 23:23:00,56.0,56.0,-100.00,ESE,115,27.0,37.0,99,-99.99,,,-99.99,,2013-04-18 04:23:00,
2013-04-17 23:33:00,56.0,56.0,-100.00,ESE,115,27.0,37.0,99,-99.99,,,-99.99,,2013-04-18 04:33:00,
2013-04-17 23:43:00,57.0,57.0,-100.00,ESE,120,30.0,39.0,99,-99.99,,,-99.99,,2013-04-18 04:43:00,
2013-04-17 23:53:00,57.0,57.0,-100.00,ESE,120,23.0,42.0,99,-99.99,,,-99.99,,2013-04-18 04:53:00,